| time (UTC) | temp C | wind direction | speed KPH | gust KPH | rain 1hr cm | rain 24hr cm | rain mn cm | humidity % | barometer mb |
| 20260506183110 | 11 | 30 | 9.7 | 11.3 | 0.36 | 2.21 | 2.21 | 99 | 1004.1 |
| 20260506182608 | 12 | 60 | 1.6 | 1.6 | 0.18 | 2.18 | 2.18 | 99 | 1003.8 |
| 20260506182104 | 12 | 154 | 1.6 | 1.6 | 0.13 | 2.16 | 2.16 | 99 | 1004.0 |
| 20260506181602 | 15 | 64 | 0.0 | 0.0 | 0.18 | 2.13 | 2.13 | 99 | 1004.1 |
| 20260506181059 | 15 | 185 | 0.0 | 0.0 | 0.13 | 2.11 | 2.11 | 99 | 1004.2 |
| 20260506180556 | 15 | 184 | 0.0 | 0.0 | 0.13 | 2.11 | 2.11 | 99 | 1004.0 |
| 20260506180052 | 15 | 212 | 0.0 | 0.0 | 0.18 | 2.08 | 2.08 | 99 | 1004.0 |
| 20260506175548 | 15 | 134 | 0.0 | 0.0 | 0.13 | 2.06 | 2.06 | 99 | 1004.2 |
| 20260506175045 | 15 | 134 | 0.0 | 0.0 | 0.30 | 2.06 | 2.06 | 99 | 1004.1 |
| 20260506174544 | 15 | 133 | 0.0 | 0.0 | 0.18 | 2.03 | 2.03 | 99 | 1004.1 |
| 20260506174039 | 14 | 133 | 0.0 | 0.0 | 0.13 | 2.01 | 2.01 | 99 | 1004.0 |
| 20260506173537 | 14 | 133 | 0.0 | 0.0 | 0.30 | 2.01 | 2.01 | 99 | 1004.1 |
| 20260506173034 | 14 | 133 | 0.0 | 0.0 | 0.13 | 1.96 | 1.96 | 99 | 1004.1 |
| 20260506172531 | 14 | 133 | 0.0 | 0.0 | 0.30 | 1.96 | 1.96 | 99 | 1004.3 |
| 20260506172022 | 14 | 133 | 0.0 | 0.0 | 0.30 | 1.91 | 1.91 | 99 | 1004.5 |
| 20260506171519 | 14 | 133 | 0.0 | 0.0 | 0.48 | 1.88 | 1.88 | 99 | 1004.3 |
| 20260506171017 | 14 | 133 | 0.0 | 0.0 | 0.61 | 1.85 | 1.85 | 99 | 1004.5 |
| 20260506170514 | 14 | 133 | 0.0 | 0.0 | 0.43 | 1.78 | 1.78 | 99 | 1004.6 |
| 20260506170006 | 14 | 133 | 0.0 | 0.0 | 0.48 | 1.75 | 1.75 | 99 | 1004.6 |
| 20260506165504 | 14 | 133 | 0.0 | 0.0 | 0.48 | 1.70 | 1.70 | 99 | 1004.8 |
| 20260506165000 | 14 | 133 | 0.0 | 0.0 | 0.30 | 1.65 | 1.65 | 99 | 1005.1 |
| 20260506164457 | 14 | 133 | 0.0 | 0.0 | 0.30 | 1.63 | 1.63 | 99 | 1005.2 |
| 20260506163954 | 14 | 133 | 0.0 | 0.0 | 0.48 | 1.60 | 1.60 | 99 | 1005.2 |
| 20260506163449 | 14 | 133 | 0.0 | 0.0 | 0.43 | 1.55 | 1.55 | 99 | 1005.0 |
| 20260506162944 | 14 | 133 | 0.0 | 0.0 | 0.61 | 1.52 | 1.52 | 99 | 1004.9 |
| 20260506162442 | 14 | 133 | 0.0 | 0.0 | 0.61 | 1.47 | 1.47 | 99 | 1005.0 |
| 20260506161939 | 14 | 133 | 0.0 | 0.0 | 0.43 | 1.40 | 1.40 | 99 | 1005.2 |
| 20260506161438 | 14 | 133 | 0.0 | 0.0 | 0.43 | 1.35 | 1.35 | 99 | 1005.3 |
| 20260506160934 | 14 | 133 | 0.0 | 0.0 | 0.48 | 1.32 | 1.32 | 99 | 1005.4 |
| 20260506160432 | 13 | 133 | 0.0 | 0.0 | 0.36 | 1.27 | 1.27 | 99 | 1005.4 |
| 20260506155929 | 13 | 133 | 0.0 | 0.0 | 0.30 | 1.24 | 1.24 | 99 | 1005.4 |
| 20260506155426 | 13 | 133 | 0.0 | 0.0 | 0.30 | 1.22 | 1.22 | 99 | 1005.5 |
| 20260506153548 | 13 | 133 | 0.0 | 0.0 | 0.30 | 1.12 | 1.12 | 99 | 1005.7 |
| 20260506153045 | 14 | 133 | 0.0 | 0.0 | 0.30 | 1.09 | 1.09 | 99 | 1005.7 |
| 20260506152542 | 13 | 133 | 0.0 | 0.0 | 0.30 | 1.07 | 1.07 | 99 | 1005.7 |
| 20260506152040 | 13 | 133 | 0.0 | 0.0 | 0.30 | 1.04 | 1.04 | 99 | 1005.9 |
| 20260506151538 | 13 | 133 | 0.0 | 0.0 | 0.43 | 1.02 | 1.02 | 99 | 1006.0 |
| 20260506151035 | 13 | 133 | 0.0 | 0.0 | 0.30 | 0.97 | 0.97 | 99 | 1006.0 |
| 20260506150531 | 13 | 133 | 0.0 | 0.0 | 0.36 | 0.94 | 0.94 | 99 | 1005.8 |
| 20260506150029 | 13 | 133 | 0.0 | 0.0 | 0.61 | 0.91 | 0.91 | 99 | 1006.1 |
| 20260506145525 | 13 | 133 | 0.0 | 0.0 | 0.48 | 0.86 | 0.86 | 99 | 1006.2 |
| 20260506145023 | 13 | 133 | 0.0 | 0.0 | 0.48 | 0.81 | 0.81 | 99 | 1006.4 |
| 20260506144519 | 13 | 133 | 0.0 | 0.0 | 0.43 | 0.79 | 0.79 | 99 | 1006.6 |
| 20260506144017 | 13 | 133 | 0.0 | 0.0 | 0.48 | 0.76 | 0.76 | 99 | 1006.4 |
| 20260506143514 | 13 | 133 | 0.0 | 0.0 | 0.48 | 0.71 | 0.71 | 99 | 1006.7 |
| 20260506143013 | 13 | 133 | 0.0 | 0.0 | 0.43 | 0.69 | 0.69 | 99 | 1006.9 |
| 20260506142510 | 13 | 133 | 0.0 | 0.0 | 0.48 | 0.64 | 0.64 | 99 | 1006.9 |
| 20260506142008 | 13 | 133 | 0.0 | 0.0 | 0.48 | 0.58 | 0.58 | 99 | 1006.6 |
| 20260506141506 | 13 | 133 | 0.0 | 0.0 | 0.43 | 0.56 | 0.56 | 99 | 1006.7 |
| 20260506141004 | 13 | 132 | 0.0 | 0.0 | 0.30 | 0.51 | 0.51 | 99 | 1006.4 |
| 20260506140501 | 13 | 132 | 0.0 | 0.0 | 0.30 | 0.48 | 0.48 | 99 | 1006.6 |
| 20260506135957 | 13 | 132 | 0.0 | 0.0 | 0.18 | 0.43 | 0.43 | 99 | 1006.5 |
| 20260506135454 | 13 | 132 | 0.0 | 0.0 | 0.13 | 0.41 | 0.41 | 99 | 1006.4 |
| 20260506134950 | 13 | 132 | 0.0 | 0.0 | 0.18 | 0.38 | 0.38 | 99 | 1006.5 |
| 20260506134446 | 13 | 132 | 0.0 | 0.0 | 0.18 | 0.38 | 0.38 | 99 | 1006.5 |
| 20260506133943 | 13 | 132 | 0.0 | 0.0 | 0.30 | 0.38 | 0.38 | 99 | 1006.5 |
| 20260506133441 | 13 | 132 | 0.0 | 0.0 | 0.30 | 0.36 | 0.36 | 99 | 1006.4 |
| 20260506132937 | 13 | 132 | 0.0 | 0.0 | 0.36 | 0.33 | 0.33 | 99 | 1006.5 |
| 20260506132434 | 13 | 132 | 0.0 | 0.0 | 0.30 | 0.30 | 0.30 | 99 | 1006.5 |
| 20260506131932 | 13 | 132 | 0.0 | 0.0 | 0.30 | 0.28 | 0.28 | 99 | 1006.1 |
| 20260506131428 | 13 | 132 | 0.0 | 0.0 | 0.18 | 0.25 | 0.25 | 99 | 1006.3 |
| 20260506130925 | 13 | 132 | 0.0 | 0.0 | 0.13 | 0.23 | 0.23 | 99 | 1006.3 |
| 20260506130421 | 13 | 134 | 0.0 | 0.0 | 0.30 | 0.23 | 0.23 | 99 | 1006.5 |
| 20260506125920 | 13 | 134 | 0.0 | 0.0 | 0.13 | 0.18 | 0.18 | 99 | 1006.6 |
| 20260506125418 | 13 | 134 | 0.0 | 0.0 | 0.13 | 0.18 | 0.18 | 99 | 1006.7 |
| 20260506124916 | 13 | 134 | 0.0 | 0.0 | 0.00 | 0.15 | 0.15 | 99 | 1006.7 |
| 20260506124413 | 13 | 134 | 0.0 | 0.0 | 0.18 | 0.15 | 0.15 | 99 | 1006.9 |
| 20260506123911 | 13 | 134 | 0.0 | 0.0 | 0.18 | 0.15 | 0.15 | 99 | 1007.0 |
| 20260506123409 | 12 | 134 | 0.0 | 0.0 | 0.13 | 0.13 | 0.13 | 99 | 1007.1 |
| 20260506122906 | 12 | 134 | 0.0 | 0.0 | 0.13 | 0.13 | 0.13 | 99 | 1007.2 |
| 20260506122402 | 12 | 134 | 0.0 | 0.0 | 0.00 | 0.10 | 0.10 | 99 | 1007.3 |
| 20260506121901 | 12 | 134 | 0.0 | 0.0 | 0.00 | 0.10 | 0.10 | 99 | 1007.1 |
| 20260506121357 | 12 | 134 | 0.0 | 0.0 | 0.18 | 0.10 | 0.10 | 99 | 1007.0 |
| 20260506120854 | 12 | 134 | 0.0 | 0.0 | 0.18 | 0.10 | 0.10 | 99 | 1007.0 |
| 20260506120352 | 12 | 134 | 0.0 | 0.0 | 0.18 | 0.10 | 0.10 | 99 | 1006.8 |
| 20260506115849 | 12 | 133 | 0.0 | 0.0 | 0.00 | 0.08 | 0.08 | 99 | 1006.8 |
| 20260506115347 | 12 | 134 | 0.0 | 0.0 | 0.00 | 0.08 | 0.08 | 99 | 1006.6 |
| 20260506114845 | 12 | 133 | 0.0 | 0.0 | 0.00 | 0.08 | 0.08 | 99 | 1006.3 |
| 20260506114342 | 12 | 135 | 0.0 | 0.0 | 0.00 | 0.08 | 0.08 | 99 | 1006.5 |
| 20260506113841 | 12 | 135 | 0.0 | 0.0 | 0.00 | 0.08 | 0.08 | 99 | 1006.5 |
| 20260506113338 | 12 | 135 | 0.0 | 0.0 | 0.00 | 0.08 | 0.08 | 99 | 1006.6 |
| 20260506112834 | 12 | 135 | 0.0 | 0.0 | 0.00 | 0.08 | 0.08 | 99 | 1006.6 |
| 20260506112332 | 12 | 135 | 0.0 | 0.0 | 0.00 | 0.08 | 0.08 | 99 | 1006.7 |
| 20260506111829 | 12 | 135 | 0.0 | 0.0 | 0.00 | 0.08 | 0.08 | 99 | 1006.7 |
| 20260506111327 | 12 | 135 | 0.0 | 0.0 | 0.00 | 0.08 | 0.08 | 99 | 1006.9 |
| 20260506110824 | 12 | 135 | 0.0 | 0.0 | 0.00 | 0.08 | 0.08 | 99 | 1006.7 |
| 20260506110321 | 12 | 134 | 0.0 | 0.0 | 0.00 | 0.08 | 0.08 | 99 | 1006.6 |
| 20260506105818 | 12 | 145 | 0.0 | 0.0 | 0.00 | 0.08 | 0.08 | 99 | 1006.4 |
| 20260506105315 | 12 | 145 | 0.0 | 0.0 | 0.00 | 0.08 | 0.08 | 99 | 1006.4 |
| 20260506104812 | 12 | 144 | 0.0 | 0.0 | 0.00 | 0.08 | 0.08 | 99 | 1006.5 |
| 20260506104310 | 12 | 144 | 0.0 | 0.0 | 0.00 | 0.08 | 0.08 | 99 | 1006.5 |
| 20260506103807 | 12 | 144 | 0.0 | 0.0 | 0.00 | 0.08 | 0.08 | 99 | 1006.4 |
| 20260506103305 | 12 | 145 | 0.0 | 0.0 | 0.00 | 0.08 | 0.08 | 99 | 1006.3 |
| 20260506102802 | 12 | 145 | 0.0 | 0.0 | 0.00 | 0.08 | 0.08 | 99 | 1006.3 |
| 20260506102300 | 12 | 145 | 0.0 | 0.0 | 0.00 | 0.08 | 0.08 | 99 | 1006.2 |
| 20260506101757 | 12 | 145 | 0.0 | 0.0 | 0.00 | 0.08 | 0.08 | 99 | 1006.1 |
| 20260506101253 | 12 | 145 | 0.0 | 0.0 | 0.00 | 0.08 | 0.08 | 99 | 1006.3 |
| 20260506100751 | 12 | 145 | 0.0 | 0.0 | 0.00 | 0.08 | 0.08 | 99 | 1006.0 |
| 20260506100249 | 12 | 145 | 0.0 | 0.0 | 0.00 | 0.08 | 0.08 | 99 | 1006.2 |
| 20260506095747 | 12 | 145 | 0.0 | 0.0 | 0.00 | 0.08 | 0.08 | 99 | 1006.2 |
| 20260506095244 | 12 | 145 | 0.0 | 0.0 | 0.00 | 0.08 | 0.08 | 99 | 1006.4 |
| 20260506094740 | 12 | 145 | 0.0 | 0.0 | 0.00 | 0.08 | 0.08 | 99 | 1006.0 |
| 20260506094239 | 12 | 145 | 0.0 | 0.0 | 0.00 | 0.08 | 0.08 | 99 | 1006.5 |
| 20260506093737 | 12 | 145 | 0.0 | 0.0 | 0.00 | 0.08 | 0.08 | 99 | 1006.2 |
| 20260506093234 | 11 | 145 | 0.0 | 0.0 | 0.00 | 0.08 | 0.08 | 99 | 1006.2 |
| 20260506092732 | 11 | 145 | 0.0 | 0.0 | 0.00 | 0.08 | 0.08 | 99 | 1006.0 |
| 20260506092230 | 11 | 145 | 0.0 | 0.0 | 0.00 | 0.08 | 0.08 | 99 | 1006.2 |
| 20260506091726 | 11 | 145 | 0.0 | 0.0 | 0.00 | 0.08 | 0.08 | 99 | 1006.6 |
| 20260506091224 | 11 | 145 | 0.0 | 0.0 | 0.00 | 0.08 | 0.08 | 99 | 1006.3 |
| 20260506090722 | 11 | 145 | 0.0 | 0.0 | 0.00 | 0.08 | 0.08 | 99 | 1006.0 |
| 20260506090218 | 11 | 145 | 0.0 | 0.0 | 0.00 | 0.08 | 0.08 | 99 | 1006.2 |
| 20260506085715 | 12 | 145 | 0.0 | 0.0 | 0.00 | 0.08 | 0.08 | 99 | 1006.4 |
| 20260506085211 | 12 | 145 | 0.0 | 0.0 | 0.00 | 0.08 | 0.08 | 99 | 1006.6 |
| 20260506084708 | 12 | 145 | 0.0 | 0.0 | 0.00 | 0.08 | 0.08 | 99 | 1006.5 |
| 20260506084204 | 12 | 145 | 0.0 | 0.0 | 0.00 | 0.08 | 0.08 | 99 | 1006.3 |
| 20260506083701 | 12 | 145 | 0.0 | 0.0 | 0.00 | 0.08 | 0.08 | 99 | 1006.8 |
| 20260506083159 | 12 | 145 | 0.0 | 0.0 | 0.00 | 0.08 | 0.08 | 99 | 1006.5 |
| 20260506082656 | 12 | 145 | 0.0 | 0.0 | 0.00 | 0.08 | 0.08 | 99 | 1006.9 |
| 20260506082156 | 12 | 145 | 0.0 | 0.0 | 0.00 | 0.08 | 0.08 | 99 | 1006.6 |
| 20260506081655 | 12 | 145 | 0.0 | 0.0 | 0.00 | 0.08 | 0.08 | 99 | 1006.7 |
| 20260506081152 | 12 | 145 | 0.0 | 0.0 | 0.00 | 0.08 | 0.08 | 99 | 1006.6 |
| 20260506080650 | 12 | 145 | 0.0 | 0.0 | 0.00 | 0.08 | 0.08 | 99 | 1006.8 |
| 20260506080146 | 12 | 145 | 0.0 | 0.0 | 0.00 | 0.08 | 0.08 | 99 | 1007.0 |
| 20260506073130 | 12 | 145 | 0.0 | 0.0 | 0.00 | 0.08 | 0.08 | 99 | 1007.3 |
| 20260506072626 | 12 | 145 | 0.0 | 0.0 | 0.00 | 0.08 | 0.08 | 99 | 1007.0 |
| 20260506072125 | 12 | 145 | 0.0 | 0.0 | 0.00 | 0.08 | 0.08 | 99 | 1006.7 |
| 20260506071622 | 12 | 145 | 0.0 | 0.0 | 0.00 | 0.08 | 0.08 | 99 | 1006.9 |
| 20260506071120 | 12 | 145 | 0.0 | 0.0 | 0.00 | 0.08 | 0.08 | 99 | 1007.1 |
| 20260506070616 | 12 | 145 | 0.0 | 0.0 | 0.00 | 0.08 | 0.08 | 99 | 1007.0 |
| 20260506070114 | 12 | 145 | 0.0 | 0.0 | 0.00 | 0.08 | 0.08 | 99 | 1007.1 |
| 20260506062051 | 13 | 145 | 0.0 | 0.0 | 0.00 | 0.08 | 0.08 | 99 | 1007.4 |
| 20260506061546 | 13 | 145 | 0.0 | 0.0 | 0.00 | 0.08 | 0.08 | 99 | 1007.3 |
| 20260506061044 | 12 | 145 | 0.0 | 0.0 | 0.00 | 0.08 | 0.08 | 99 | 1007.2 |
| 20260506060543 | 13 | 145 | 0.0 | 0.0 | 0.00 | 0.08 | 0.08 | 99 | 1007.3 |
| 20260506051011 | 13 | 145 | 0.0 | 0.0 | 0.13 | 0.08 | 0.08 | 99 | 1007.4 |
| 20260506050509 | 13 | 145 | 0.0 | 0.0 | 0.13 | 0.08 | 0.08 | 99 | 1007.5 |
| 20260506045000 | 13 | 146 | 0.0 | 0.0 | 0.00 | 0.05 | 0.05 | 99 | 1007.9 |
| 20260506044458 | 13 | 146 | 0.0 | 0.0 | 0.00 | 0.05 | 0.05 | 99 | 1008.1 |
| 20260506043954 | 13 | 145 | 0.0 | 1.6 | 0.18 | 0.05 | 0.05 | 99 | 1007.9 |
| 20260506043451 | 13 | 145 | 0.0 | 0.0 | 0.00 | 0.03 | 0.03 | 99 | 1007.6 |
| 20260506042949 | 13 | 147 | 1.6 | 1.6 | 0.00 | 0.03 | 0.03 | 99 | 1007.7 |
| 20260506042449 | 13 | 148 | 0.0 | 0.0 | 0.13 | 0.03 | 0.03 | 99 | 1007.7 |
| 20260506041946 | 13 | 148 | 0.0 | 0.0 | 0.13 | 0.03 | 0.03 | 99 | 1007.2 |
| 20260506041444 | 13 | 148 | 0.0 | 0.0 | 0.00 | 0.00 | 0.00 | 99 | 1007.0 |
| 20260506040941 | 13 | 148 | 0.0 | 0.0 | 0.00 | 0.00 | 0.00 | 99 | 1007.6 |
| 20260506040438 | 13 | 167 | 0.0 | 0.0 | 0.00 | 0.00 | 0.00 | 99 | 1007.2 |
| 20260506035934 | 13 | 168 | 0.0 | 0.0 | 0.00 | 0.23 | 0.23 | 99 | 1007.6 |
| 20260506035432 | 13 | 168 | 0.0 | 0.0 | 0.00 | 0.23 | 0.23 | 99 | 1007.4 |
| 20260506034928 | 13 | 168 | 0.0 | 0.0 | 0.00 | 0.23 | 0.23 | 99 | 1007.4 |
| 20260506034426 | 13 | 168 | 0.0 | 0.0 | 0.00 | 0.23 | 0.23 | 99 | 1007.2 |
| 20260506033923 | 13 | 168 | 0.0 | 0.0 | 0.00 | 0.23 | 0.23 | 99 | 1007.2 |
| 20260506033420 | 13 | 168 | 0.0 | 0.0 | 0.00 | 0.23 | 0.23 | 99 | 1007.4 |
| 20260506032917 | 13 | 168 | 0.0 | 0.0 | 0.00 | 0.23 | 0.23 | 99 | 1007.1 |
| 20260506032414 | 13 | 168 | 0.0 | 0.0 | 0.00 | 0.23 | 0.23 | 99 | 1006.9 |
| 20260506031910 | 13 | 168 | 0.0 | 0.0 | 0.00 | 0.23 | 0.23 | 99 | 1007.0 |
| 20260506031408 | 13 | 167 | 0.0 | 0.0 | 0.00 | 0.23 | 0.23 | 99 | 1007.1 |
| 20260506030905 | 13 | 167 | 0.0 | 0.0 | 0.00 | 0.23 | 0.23 | 99 | 1007.0 |
| 20260506030403 | 13 | 168 | 0.0 | 0.0 | 0.00 | 0.23 | 0.23 | 99 | 1006.8 |
| 20260506025859 | 13 | 168 | 0.0 | 0.0 | 0.00 | 0.23 | 0.23 | 99 | 1007.3 |
| 20260506025356 | 13 | 168 | 0.0 | 0.0 | 0.00 | 0.23 | 0.23 | 99 | 1006.9 |
| 20260506024853 | 14 | 168 | 0.0 | 0.0 | 0.00 | 0.23 | 0.23 | 99 | 1006.9 |
| 20260506024350 | 14 | 168 | 0.0 | 0.0 | 0.00 | 0.23 | 0.23 | 99 | 1007.0 |
| 20260506023846 | 14 | 168 | 0.0 | 0.0 | 0.00 | 0.23 | 0.23 | 99 | 1007.1 |
| 20260506023343 | 14 | 168 | 0.0 | 0.0 | 0.00 | 0.23 | 0.23 | 99 | 1007.1 |
| 20260506022840 | 14 | 168 | 0.0 | 0.0 | 0.00 | 0.23 | 0.23 | 99 | 1006.8 |
| 20260506022338 | 14 | 168 | 0.0 | 0.0 | 0.00 | 0.23 | 0.23 | 99 | 1007.0 |
| 20260506021836 | 14 | 168 | 0.0 | 0.0 | 0.00 | 0.23 | 0.23 | 99 | 1006.9 |
| 20260506021332 | 14 | 168 | 0.0 | 0.0 | 0.00 | 0.23 | 0.23 | 99 | 1006.8 |
| 20260506020829 | 13 | 168 | 0.0 | 0.0 | 0.00 | 0.23 | 0.23 | 99 | 1006.8 |
| 20260506020327 | 14 | 168 | 0.0 | 0.0 | 0.00 | 0.23 | 0.23 | 99 | 1006.5 |
| 20260506015824 | 13 | 168 | 0.0 | 0.0 | 0.00 | 0.23 | 0.23 | 99 | 1006.8 |
| 20260506015321 | 14 | 168 | 0.0 | 0.0 | 0.00 | 0.23 | 0.23 | 99 | 1006.9 |
| 20260506014818 | 14 | 168 | 0.0 | 0.0 | 0.00 | 0.23 | 0.23 | 99 | 1006.7 |
| 20260506014315 | 14 | 168 | 0.0 | 0.0 | 0.00 | 0.23 | 0.23 | 99 | 1006.7 |
| 20260506013812 | 14 | 168 | 0.0 | 0.0 | 0.00 | 0.23 | 0.23 | 99 | 1006.1 |
| 20260506013309 | 14 | 168 | 0.0 | 0.0 | 0.00 | 0.23 | 0.23 | 99 | 1006.3 |
| 20260506012805 | 14 | 168 | 0.0 | 0.0 | 0.00 | 0.23 | 0.23 | 99 | 1006.4 |
| 20260506012307 | 14 | 168 | 0.0 | 0.0 | 0.00 | 0.23 | 0.23 | 99 | 1006.2 |
| 20260506011800 | 14 | 168 | 0.0 | 0.0 | 0.00 | 0.23 | 0.23 | 99 | 1006.4 |
| 20260506011256 | 13 | 168 | 0.0 | 0.0 | 0.00 | 0.23 | 0.23 | 99 | 1006.6 |
| 20260506010754 | 13 | 168 | 0.0 | 0.0 | 0.00 | 0.23 | 0.23 | 99 | 1006.4 |
| 20260506010251 | 13 | 168 | 1.6 | 1.6 | 0.00 | 0.23 | 0.23 | 99 | 1006.5 |
| 20260506005748 | 13 | 171 | 0.0 | 0.0 | 0.00 | 0.23 | 0.23 | 99 | 1006.2 |
| 20260506005245 | 13 | 171 | 0.0 | 0.0 | 0.00 | 0.23 | 0.23 | 99 | 1006.1 |
| 20260506004741 | 14 | 171 | 0.0 | 0.0 | 0.00 | 0.23 | 0.23 | 99 | 1005.8 |
| 20260506004239 | 14 | 171 | 0.0 | 0.0 | 0.00 | 0.23 | 0.23 | 99 | 1005.7 |
| 20260506003734 | 15 | 171 | 0.0 | 0.0 | 0.00 | 0.23 | 0.23 | 99 | 1005.7 |
| 20260506003231 | 15 | 171 | 0.0 | 0.0 | 0.00 | 0.23 | 0.23 | 99 | 1005.6 |
| 20260506002727 | 15 | 172 | 0.0 | 0.0 | 0.00 | 0.23 | 0.23 | 99 | 1005.6 |
| 20260506002224 | 15 | 172 | 0.0 | 0.0 | 0.00 | 0.23 | 0.23 | 99 | 1005.7 |
| 20260506001719 | 15 | 171 | 0.0 | 0.0 | 0.00 | 0.23 | 0.23 | 98 | 1005.3 |
| 20260506001217 | 15 | 171 | 0.0 | 0.0 | 0.00 | 0.23 | 0.23 | 98 | 1005.3 |
| 20260506000714 | 15 | 171 | 0.0 | 0.0 | 0.00 | 0.23 | 0.23 | 97 | 1005.2 |
| 20260506000212 | 16 | 170 | 0.0 | 0.0 | 0.00 | 0.23 | 0.23 | 94 | 1005.3 |
| 20260505235709 | 16 | 171 | 0.0 | 0.0 | 0.00 | 0.23 | 0.23 | 94 | 1005.5 |
| 20260505235206 | 16 | 171 | 0.0 | 0.0 | 0.00 | 0.23 | 0.23 | 94 | 1005.4 |
| 20260505234703 | 16 | 171 | 0.0 | 0.0 | 0.00 | 0.23 | 0.23 | 94 | 1005.3 |
| 20260505234200 | 16 | 171 | 1.6 | 1.6 | 0.00 | 0.23 | 0.23 | 92 | 1005.5 |
| 20260505233656 | 17 | 171 | 0.0 | 0.0 | 0.00 | 0.23 | 0.23 | 90 | 1005.0 |
| 20260505233155 | 17 | 171 | 0.0 | 0.0 | 0.18 | 0.23 | 0.23 | 89 | 1005.4 |
| 20260505232652 | 17 | 171 | 0.0 | 0.0 | 0.18 | 0.23 | 0.23 | 88 | 1005.4 |
| 20260505232149 | 17 | 171 | 0.0 | 0.0 | 0.00 | 0.20 | 0.20 | 86 | 1005.4 |
| 20260505231646 | 17 | 171 | 0.0 | 0.0 | 0.00 | 0.20 | 0.20 | 86 | 1005.4 |
| 20260505231145 | 17 | 171 | 0.0 | 0.0 | 0.00 | 0.20 | 0.20 | 86 | 1005.1 |
| 20260505230642 | 17 | 171 | 0.0 | 0.0 | 0.00 | 0.20 | 0.20 | 86 | 1005.2 |
| 20260505230139 | 17 | 170 | 0.0 | 0.0 | 0.00 | 0.20 | 0.20 | 85 | 1005.3 |
| 20260505225635 | 18 | 169 | 1.6 | 1.6 | 0.00 | 0.20 | 0.20 | 82 | 1005.2 |
| 20260505225131 | 18 | 189 | 0.0 | 0.0 | 0.00 | 0.20 | 0.20 | 84 | 1005.1 |
| 20260505224628 | 18 | 189 | 0.0 | 0.0 | 0.00 | 0.20 | 0.20 | 83 | 1005.2 |
| 20260505224126 | 18 | 177 | 0.0 | 0.0 | 0.00 | 0.20 | 0.20 | 87 | 1005.5 |
| 20260505223623 | 18 | 170 | 0.0 | 0.0 | 0.00 | 0.20 | 0.20 | 87 | 1005.4 |
| 20260505223119 | 18 | 166 | 1.6 | 1.6 | 0.00 | 0.20 | 0.20 | 81 | 1005.4 |
| 20260505222615 | 18 | 179 | 0.0 | 0.0 | 0.00 | 0.20 | 0.20 | 88 | 1005.4 |
| 20260505222111 | 18 | 298 | 0.0 | 0.0 | 0.00 | 0.20 | 0.20 | 83 | 1005.6 |
| 20260505221609 | 18 | 298 | 0.0 | 1.6 | 0.00 | 0.20 | 0.20 | 84 | 1005.3 |
| 20260505221105 | 18 | 298 | 1.6 | 1.6 | 0.00 | 0.20 | 0.20 | 83 | 1005.3 |
| 20260505220603 | 18 | 298 | 0.0 | 0.0 | 0.00 | 0.20 | 0.20 | 81 | 1004.9 |
| 20260505220100 | 18 | 297 | 0.0 | 1.6 | 0.00 | 0.20 | 0.20 | 83 | 1005.2 |
| 20260505215558 | 18 | 300 | 0.0 | 1.6 | 0.00 | 0.20 | 0.20 | 78 | 1004.6 |
| 20260505215055 | 19 | 300 | 0.0 | 0.0 | 0.00 | 0.20 | 0.20 | 78 | 1004.5 |
| 20260505214554 | 18 | 307 | 1.6 | 1.6 | 0.00 | 0.20 | 0.20 | 79 | 1004.8 |
| 20260505214050 | 19 | 211 | 1.6 | 1.6 | 0.00 | 0.20 | 0.20 | 82 | 1004.7 |
| 20260505213548 | 18 | 10 | 8.0 | 9.7 | 0.00 | 0.20 | 0.20 | 82 | 1004.8 |
| 20260505213044 | 18 | 306 | 3.2 | 3.2 | 0.00 | 0.20 | 0.20 | 87 | 1004.8 |
| 20260505212540 | 17 | 277 | 3.2 | 4.8 | 0.00 | 0.20 | 0.20 | 99 | 1004.4 |
| 20260505212038 | 17 | 132 | 0.0 | 0.0 | 0.00 | 0.20 | 0.20 | 99 | 1004.3 |
| 20260505211535 | 17 | 132 | 0.0 | 0.0 | 0.00 | 0.20 | 0.20 | 99 | 1004.3 |
| 20260505211031 | 17 | 132 | 1.6 | 1.6 | 0.00 | 0.20 | 0.20 | 99 | 1004.0 |
| 20260505210528 | 18 | 131 | 0.0 | 0.0 | 0.00 | 0.20 | 0.20 | 97 | 1003.5 |
| 20260505210026 | 18 | 131 | 0.0 | 0.0 | 0.00 | 0.20 | 0.20 | 97 | 1003.3 |
| 20260505205523 | 17 | 131 | 0.0 | 1.6 | 0.00 | 0.20 | 0.20 | 96 | 1003.2 |
| 20260505205020 | 18 | 132 | 1.6 | 1.6 | 0.00 | 0.20 | 0.20 | 96 | 1002.9 |
| 20260505204518 | 18 | 139 | 0.0 | 1.6 | 0.00 | 0.20 | 0.20 | 93 | 1003.4 |
| 20260505204015 | 18 | 156 | 0.0 | 0.0 | 0.00 | 0.20 | 0.20 | 99 | 1003.4 |
| 20260505203511 | 18 | 157 | 0.0 | 0.0 | 0.00 | 0.20 | 0.20 | 99 | 1003.3 |
| 20260505203009 | 17 | 158 | 0.0 | 0.0 | 0.00 | 0.20 | 0.20 | 99 | 1003.2 |
| 20260505202504 | 17 | 156 | 1.6 | 1.6 | 0.00 | 0.20 | 0.20 | 98 | 1003.3 |
| 20260505202000 | 17 | 173 | 1.6 | 1.6 | 0.00 | 0.20 | 0.20 | 99 | 1002.8 |
| 20260505201457 | 17 | 186 | 1.6 | 1.6 | 0.00 | 0.20 | 0.20 | 99 | 1003.0 |
| 20260505200955 | 17 | 176 | 1.6 | 1.6 | 0.79 | 0.20 | 0.20 | 95 | 1002.7 |
| 20260505200453 | 18 | 246 | 4.8 | 8.0 | 1.19 | 0.20 | 0.20 | 88 | 1003.2 |
| 20260505195948 | 23 | 295 | 6.4 | 9.7 | 0.00 | 0.00 | 0.00 | 61 | 1003.6 |
| 20260505195446 | 23 | 282 | 4.8 | 4.8 | 0.00 | 0.00 | 0.00 | 61 | 1002.5 |
| 20260505194943 | 23 | 236 | 4.8 | 4.8 | 0.00 | 0.00 | 0.00 | 59 | 1001.7 |
| 20260505194440 | 25 | 218 | 1.6 | 1.6 | 0.00 | 0.00 | 0.00 | 49 | 1001.4 |
| 20260505193940 | 25 | 239 | 3.2 | 4.8 | 0.00 | 0.00 | 0.00 | 49 | 1001.7 |
| 20260505193438 | 25 | 212 | 6.4 | 8.0 | 0.00 | 0.00 | 0.00 | 49 | 1001.5 |
| 20260505192936 | 25 | 217 | 9.7 | 11.3 | 0.00 | 0.00 | 0.00 | 48 | 1001.4 |
| 20260505192434 | 25 | 192 | 4.8 | 8.0 | 0.00 | 0.00 | 0.00 | 49 | 1001.6 |
| 20260505191931 | 25 | 200 | 6.4 | 8.0 | 0.00 | 0.00 | 0.00 | 49 | 1001.5 |
| 20260505191430 | 25 | 216 | 4.8 | 4.8 | 0.00 | 0.00 | 0.00 | 49 | 1001.5 |
| 20260505190926 | 25 | 211 | 9.7 | 11.3 | 0.00 | 0.00 | 0.00 | 48 | 1001.5 |
| 20260505190421 | 26 | 226 | 3.2 | 4.8 | 0.00 | 0.00 | 0.00 | 47 | 1001.6 |
| 20260505185917 | 26 | 194 | 1.6 | 1.6 | 0.00 | 0.00 | 0.00 | 49 | 1001.6 |
| 20260505185415 | 26 | 231 | 4.8 | 4.8 | 0.00 | 0.00 | 0.00 | 47 | 1001.5 |
| 20260505184910 | 26 | 221 | 4.8 | 9.7 | 0.00 | 0.00 | 0.00 | 46 | 1001.7 |
| 20260505184407 | 26 | 188 | 3.2 | 4.8 | 0.00 | 0.00 | 0.00 | 48 | 1001.7 |
| 20260505183905 | 27 | 191 | 3.2 | 3.2 | 0.00 | 0.00 | 0.00 | 46 | 1001.8 |
| 20260505183401 | 27 | 217 | 1.6 | 3.2 | 0.00 | 0.00 | 0.00 | 45 | 1001.6 |